Regional Weather Roundup
Issued by NWS State College, PA

Home | Current Version | Previous Version | Graphics & Text | Print | Product List | Glossary On
Versions: 1 2 3 4 5 6 7 8 9 10 11 12 13 14 15 16 17 18 19 20 21 22 23 24 25 26 27 28 29 30 31 32 33 34 35 36 37 38 39 40 41 42 43 44 45 46 47 48 49 50
000
ASUS41 KCTP 221110
RWRCTP

REGIONAL WEATHER ROUNDUP
NATIONAL WEATHER SERVICE STATE COLLEGE PA
600 AM EST THU FEB 22 2018

Note: "fair" indicates few or no clouds below 12,000 feet with no
significant weather and/or obstructions to visibility.

* = STATION THAT DOES NOT REPORT PRECIPITATION /E.G. RAIN...SNOW...ETC/
    THUNDER OR FOG.

PAZ002>004-007>009-013>016-020>023-029>032-221200-
WESTERN PENNSYLVANIA

CITY           SKY/WX    TMP DP  RH WIND       PRES   REMARKS
ERIE           CLOUDY    33  27  78 NE13      30.57S
MEADVILLE      MIX PCPN  32  30  92 NE8       30.51S
FRANKLIN*      LGT RAIN  33  31  92 NE8       30.50R
NEW CASTLE     MIX PCPN  35  35 100 NE8       30.51R
BEAVER COUNTY  NOT AVBL
BUTLER*        LGT RAIN  37  35  92 NE8       30.49R
PITTSBURGH INT LGT RAIN  42  37  82 NE9       30.45S
PITTSBURGH     LGT RAIN  39  36  89 NE7       30.45R
INDIANA*       CLOUDY    36  34  93 E8        30.51S FOG
LATROBE        LGT RAIN  39  39 100 N8        30.47R
WASHINGTON CO* LGT RAIN  40  38  93 NE12      30.47R FOG
$$

PAZ004>006-010>012-017>019-024>028-033>037-041-042-045-046-049>053-221200-
CENTRAL PENNSYLVANIA

CITY           SKY/WX    TMP DP  RH WIND       PRES   REMARKS
BRADFORD       MIX PCPN  32  25  75 E7        30.50R
DUBOIS         CLOUDY    34  28  79 NE10      30.47S
CLEARFIELD     LGT RAIN  37  32  82 NE7       30.50R
JOHNSTOWN      CLOUDY    36  34  92 NE9       30.41F
ALTOONA        CLOUDY    39  31  72 NE12      30.49R
STATE COLLEGE  DRIZZLE   37  30  75 NE9       30.51R
WILLIAMSPORT   LGT RAIN  39  32  76 NE5       30.54S
SELINSGROVE    CLOUDY    40  31  70 N12       30.54R
FT INDIANTOWN  LGT RAIN  42  41  98 N5        30.53R
CAPITAL CITY   CLOUDY    46  37  71 NE6       30.53R
HARRISBURG     CLOUDY    46  36  68 N5        30.52R
YORK           LGT RAIN  46  34  62 N8        30.50R
$$

PAZ038>040-043-044-047-048-054-055-060>062-067>071-221200-
EASTERN PENNSYLVANIA

CITY           SKY/WX    TMP DP  RH WIND       PRES   REMARKS
SCRANTON       LGT RAIN  38  33  82 N8        30.55R
MOUNT POCONO   LGT RAIN  36  32  85 N6        30.50R
ALLENTOWN      CLOUDY    45  37  73 E9        30.52S
QUAKERTOWN*    CLOUDY    45  37  76 NE8G14    30.50F
READING        CLOUDY    45  40  82 N10       30.50S
LANCASTER      CLOUDY    46  34  62 NE13      30.50R
COATESVILLE    CLOUDY    48 N/A N/A NE5       30.48S
POTTSTOWN      CLOUDY    46  36  68 NE7       30.50S
BLUE BELL      CLOUDY    46  36  66 NE8       30.51R
DOYLESTOWN     CLOUDY    48  36  63 NE8       30.48S
WILLOW GROVE   NOT AVBL
NORTH PHILA    CLOUDY    52  37  56 NE10      30.51R
PHILADELPHIA   CLOUDY    52  35  52 NE14      30.49R
$$




USA.gov is the U.S. government's official web portal to all federal, state and local government web resources and services.